TimeCDT,TemperatureF,Dew PointF,Humidity,Sea Level PressureIn,VisibilityMPH,Wind Direction,Wind SpeedMPH,Gust SpeedMPH,PrecipitationIn,Events,Conditions,WindDirDegrees,DateUTC
12:15 AM,62.6,57.2,82,29.57,10.0,ENE,9.2,-,N/A,,Scattered Clouds,70,2012-10-14 05:15:00
12:35 AM,62.6,57.2,82,29.59,10.0,East,5.8,-,N/A,,Scattered Clouds,90,2012-10-14 05:35:00
12:55 AM,62.6,57.2,82,29.60,10.0,SW,4.6,-,N/A,,Overcast,230,2012-10-14 05:55:00
1:15 AM,62.6,57.2,82,29.60,10.0,Calm,Calm,-,N/A,,Overcast,0,2012-10-14 06:15:00
1:35 AM,62.6,57.2,82,29.60,10.0,ENE,3.5,-,N/A,,Overcast,60,2012-10-14 06:35:00
1:55 AM,62.6,59.0,88,29.61,10.0,Calm,Calm,-,N/A,Rain,Light Rain,0,2012-10-14 06:55:00
2:35 AM,62.6,57.2,82,29.61,10.0,WNW,4.6,-,N/A,,Overcast,290,2012-10-14 07:35:00
2:55 AM,62.6,57.2,82,29.59,10.0,Calm,Calm,-,N/A,,Overcast,0,2012-10-14 07:55:00
3:15 AM,62.6,57.2,82,29.58,10.0,Calm,Calm,-,N/A,,Overcast,0,2012-10-14 08:15:00
3:35 AM,62.6,57.2,82,29.59,10.0,North,5.8,-,N/A,,Overcast,350,2012-10-14 08:35:00
3:55 AM,62.6,57.2,82,29.59,10.0,North,6.9,-,0.01,,Drizzle,350,2012-10-14 08:55:00
4:15 AM,62.6,57.2,82,29.61,10.0,NNW,10.4,-,0.05,Rain,Heavy Rain,330,2012-10-14 09:15:00
4:35 AM,62.6,57.2,82,29.61,10.0,NNW,10.4,-,0.26,Rain,Heavy Rain,330,2012-10-14 09:35:00
4:55 AM,60.8,55.4,82,29.62,3.0,North,25.3,39.1,0.51,Rain,Heavy Rain,350,2012-10-14 09:55:00
5:15 AM,59.0,55.4,88,29.63,7.0,North,18.4,26.5,0.13,Rain,Rain,350,2012-10-14 10:15:00
5:35 AM,57.2,53.6,88,29.64,10.0,North,16.1,-,0.21,Rain,Rain,350,2012-10-14 10:35:00
5:55 AM,57.2,53.6,88,29.65,10.0,NNW,11.5,-,0.24,Rain,Light Rain,340,2012-10-14 10:55:00
6:15 AM,57.2,53.6,88,29.66,10.0,NNW,11.5,20.7,0.04,Rain,Rain,340,2012-10-14 11:15:00
6:35 AM,57.2,53.6,88,29.67,10.0,NNW,16.1,-,0.10,Rain,Rain,330,2012-10-14 11:35:00
6:55 AM,55.4,51.8,88,29.68,7.0,NNW,11.5,-,0.10,,Overcast,340,2012-10-14 11:55:00
7:15 AM,55.4,51.8,88,29.69,7.0,NNW,13.8,17.3,N/A,,Overcast,330,2012-10-14 12:15:00
7:35 AM,55.4,51.8,88,29.71,7.0,NNW,11.5,21.9,N/A,,Overcast,330,2012-10-14 12:35:00
7:55 AM,53.6,51.8,94,29.72,7.0,NNW,19.6,26.5,N/A,,Overcast,330,2012-10-14 12:55:00
8:15 AM,53.6,50.0,88,29.73,7.0,NNW,16.1,25.3,N/A,,Mostly Cloudy,330,2012-10-14 13:15:00
8:35 AM,53.6,51.8,94,29.74,7.0,NNW,12.7,23.0,N/A,,Clear,330,2012-10-14 13:35:00
8:55 AM,55.4,50.0,82,29.76,7.0,NW,13.8,23.0,N/A,,Clear,320,2012-10-14 13:55:00
9:15 AM,55.4,50.0,82,29.78,7.0,NW,17.3,27.6,N/A,,Clear,310,2012-10-14 14:15:00
9:35 AM,55.4,50.0,82,29.79,5.0,NW,18.4,24.2,N/A,,Haze,310,2012-10-14 14:35:00
9:55 AM,55.4,46.4,72,29.80,10.0,NW,23.0,32.2,N/A,,Scattered Clouds,320,2012-10-14 14:55:00
10:15 AM,55.4,46.4,72,29.81,10.0,NW,12.7,25.3,N/A,,Clear,320,2012-10-14 15:15:00
10:35 AM,55.4,46.4,72,29.83,10.0,NW,18.4,24.2,N/A,,Clear,320,2012-10-14 15:35:00
10:55 AM,55.4,44.6,67,29.84,10.0,NW,18.4,27.6,N/A,,Clear,320,2012-10-14 15:55:00
11:15 AM,57.2,44.6,63,29.85,10.0,NW,21.9,28.8,N/A,,Clear,320,2012-10-14 16:15:00
11:35 AM,57.2,44.6,63,29.85,10.0,NNW,23.0,29.9,N/A,,Clear,330,2012-10-14 16:35:00
11:55 AM,59.0,44.6,59,29.86,10.0,NW,18.4,28.8,N/A,,Clear,320,2012-10-14 16:55:00
12:15 PM,59.0,44.6,59,29.88,10.0,NW,19.6,25.3,N/A,,Clear,320,2012-10-14 17:15:00
12:35 PM,60.8,42.8,52,29.88,10.0,NNW,20.7,27.6,N/A,,Clear,330,2012-10-14 17:35:00
12:55 PM,60.8,42.8,52,29.88,10.0,NNW,18.4,31.1,N/A,,Clear,330,2012-10-14 17:55:00
1:15 PM,62.6,42.8,48,29.88,10.0,NW,18.4,27.6,N/A,,Clear,320,2012-10-14 18:15:00
1:35 PM,62.6,42.8,48,29.89,10.0,NW,16.1,23.0,N/A,,Clear,320,2012-10-14 18:35:00
1:55 PM,62.6,41.0,45,29.89,10.0,NNW,18.4,23.0,N/A,,Clear,330,2012-10-14 18:55:00
2:15 PM,64.4,39.2,40,29.89,10.0,NW,20.7,28.8,N/A,,Clear,320,2012-10-14 19:15:00
2:35 PM,64.4,39.2,40,29.89,10.0,NW,18.4,29.9,N/A,,Clear,310,2012-10-14 19:35:00
2:55 PM,66.2,37.4,35,29.90,10.0,NW,18.4,25.3,N/A,,Clear,310,2012-10-14 19:55:00
3:15 PM,66.2,37.4,35,29.90,10.0,NW,19.6,25.3,N/A,,Clear,320,2012-10-14 20:15:00
3:35 PM,66.2,37.4,35,29.91,10.0,NW,20.7,26.5,N/A,,Clear,310,2012-10-14 20:35:00
3:55 PM,66.2,35.6,32,29.91,10.0,NW,17.3,28.8,N/A,,Clear,320,2012-10-14 20:55:00
4:15 PM,66.2,37.4,35,29.92,10.0,NW,15.0,21.9,N/A,,Clear,310,2012-10-14 21:15:00
4:35 PM,66.2,37.4,35,29.92,10.0,NW,12.7,18.4,N/A,,Clear,320,2012-10-14 21:35:00
4:55 PM,66.2,37.4,35,29.92,10.0,NW,12.7,17.3,N/A,,Clear,320,2012-10-14 21:55:00
5:15 PM,66.2,37.4,35,29.93,10.0,NW,11.5,16.1,N/A,,Clear,320,2012-10-14 22:15:00
5:35 PM,66.2,37.4,35,29.93,10.0,NW,8.1,-,N/A,,Clear,310,2012-10-14 22:35:00
5:55 PM,64.4,39.2,40,29.93,10.0,NW,9.2,-,N/A,,Clear,310,2012-10-14 22:55:00
6:15 PM,64.4,39.2,40,29.93,10.0,WNW,6.9,-,N/A,,Clear,300,2012-10-14 23:15:00
6:35 PM,60.8,41.0,48,29.94,10.0,WNW,4.6,-,N/A,,Clear,290,2012-10-14 23:35:00
6:55 PM,59.0,41.0,51,29.94,10.0,WNW,6.9,-,N/A,,Clear,290,2012-10-14 23:55:00
7:15 PM,60.8,41.0,48,29.95,10.0,WNW,6.9,-,N/A,,Clear,290,2012-10-15 00:15:00
7:35 PM,55.4,41.0,58,29.95,10.0,West,4.6,-,N/A,,Scattered Clouds,270,2012-10-15 00:35:00
7:55 PM,53.6,42.8,67,29.96,10.0,West,5.8,-,N/A,,Scattered Clouds,270,2012-10-15 00:55:00
8:15 PM,51.8,42.8,71,29.96,10.0,West,5.8,-,N/A,,Clear,280,2012-10-15 01:15:00
8:35 PM,51.8,42.8,71,29.96,10.0,West,4.6,-,N/A,,Clear,270,2012-10-15 01:35:00
8:55 PM,51.8,42.8,71,29.96,10.0,West,3.5,-,N/A,,Clear,280,2012-10-15 01:55:00
9:15 PM,48.2,42.8,82,29.96,10.0,Calm,Calm,-,N/A,,Clear,0,2012-10-15 02:15:00
9:35 PM,48.2,42.8,82,29.96,10.0,Calm,Calm,-,N/A,,Clear,0,2012-10-15 02:35:00
9:55 PM,46.4,41.0,81,29.97,10.0,Calm,Calm,-,N/A,,Clear,0,2012-10-15 02:55:00
10:15 PM,46.4,41.0,81,29.97,10.0,Calm,Calm,-,N/A,,Clear,0,2012-10-15 03:15:00
10:35 PM,46.4,41.0,81,29.97,10.0,Calm,Calm,-,N/A,,Scattered Clouds,0,2012-10-15 03:35:00
10:55 PM,46.4,41.0,81,29.98,10.0,Calm,Calm,-,N/A,,Clear,0,2012-10-15 03:55:00
11:15 PM,46.4,41.0,81,29.98,10.0,Calm,Calm,-,N/A,,Clear,0,2012-10-15 04:15:00
11:35 PM,48.2,41.0,76,29.98,10.0,Calm,Calm,-,N/A,,Clear,0,2012-10-15 04:35:00
11:55 PM,46.4,41.0,81,29.98,10.0,Calm,Calm,-,N/A,,Scattered Clouds,0,2012-10-15 04:55:00